Location: Unspecified
(0.0000°N, 0.0000°E)
Time: 11:58:35
(UTC+00:00)

Tiangong - Pass Details

Date: 03 December 2021
Orbit: 379 x 385 km, 41.5° (Epoch: 08 December)

Event Time Altitude Azimuth Distance (km) Brightness Sun altitude
Exits shadow 04:26:12 14° 22° (NNE) 1,179 3.5 -19.3°
Maximum altitude 04:27:09 15° 43° (NE) 1,109 3.6 -19.1°
Drops below altitude 10° 04:29:05 10° 82° (E) 1,380 4.7 -18.6°
Sets 04:31:44 0° 106° (ESE) 2,235 6.6 -18.0°
